Preview of NWS' New Version of Forecast
This preview is not operational and should not be used for support decisions.

Regional Weather Roundup (RWR)

Issued by National Weather Service (NWS)

                            
000
ASUS42 KTBW 171617
RWRFL 
FLORIDA REGIONAL WEATHER ROUNDUP
NATIONAL WEATHER SERVICE TAMPA BAY RUSKIN FL
1100 AM EST SUN FEB 17 2019

NOTE: "FAIR" INDICATES FEW OR NO CLOUDS BELOW 12,000 FEET WITH NO
SIGNIFICANT WEATHER AND/OR OBSTRUCTIONS TO VISIBILITY.

FLZ001>010-012>015-112-114-115-171700-
PANHANDLE FLORIDA
  
CITY           SKY/WX    TMP DP  RH WIND       PRES   REMARKS
PENSACOLA      CLOUDY    72  68  87 S12       29.89R                  
PENSACOLA NAS  CLOUDY    72  69  90 S14       29.88R                  
MILTON NAS     CLOUDY    72  69  90 S14       29.89R                  
CRESTVIEW      CLOUDY    72  66  81 S12       29.92S                  
DUKE FIELD     FAIR      73  68  83 S8        29.91R                  
VALPARAISO     CLOUDY    72  66  83 SE14      29.90S                  
MARY ESTHER    LGT RAIN  70  68  94 S12       29.89S                  
PANAMA CITY    FAIR      71  63  75 SE14      29.93R                  
TYNDALL AFB    PTSUNNY   75  63  66 SE14      29.93R                  
APALACHICOLA   CLOUDY    69  65  86 S9        29.94R                  

STATION/POSITION SKY/WX   TEMP    WIND        PRES    WAVE   SWELL
                          AIR SEA DIR/SP/G            HT/PER HT/PER
                          (F)     (DEG/KT/KT) (MB)    (FT/S) (FT/S)
30.1N   87.6W              66     130/  6/  8   N/A     2/ 5   2/ 5
29.2N   88.2W                     140/  4/  6 1011.8R   3/ 5   2/ 5
PANAMA CITY BEAC           64 62  120/  9/ 10 1013.7R
TOWER C                    67     170/ 15/ 16 1013.8R

$$
FLZ011-016>038-118-127-128-134-139-239-171700-
NORTH FLORIDA
  
CITY           SKY/WX    TMP DP  RH WIND       PRES   REMARKS
MARIANNA       CLOUDY    73  66  78 S12       29.93S                  
TALLAHASSEE    PTSUNNY   70  65  84 E6        29.96R                  
PERRY          CLOUDY    69  68  97 S5        29.97S FOG              
LIVE OAK       CLOUDY    70  70 100 SE3       29.96F                  
CROSS CITY     CLOUDY    71  70  94 S6        29.98S                  
LAKE CITY      CLOUDY    68  66  94 S3        29.99F                  
GAINESVILLE    PTSUNNY   78  65  63 SW9       30.01S                  
WILLISTON        N/A    N/A N/A N/A MISG        N/A                   
PALATKA        CLOUDY    77  66  69 SW5       30.01R                  
MAYPORT NAS    CLOUDY    65  63  93 SE8       30.01S                  
JACKSONVILLE   PTSUNNY   71  66  84 S6        29.99F                  
JAX NAS        PTSUNNY   71  66  84 S6        30.01S                  
JAX CECIL      CLOUDY    73  66  78 SW6       30.00S                  
FERNANDINA BEA CLOUDY    68  63  86 SE8       30.01R                  
ST AUGUSTINE   PTSUNNY   71  64  78 E10       30.02R                  
PALM COAST     MOSUNNY   77  64  65 S8        30.01S                  

STATION/POSITION SKY/WX   TEMP    WIND        PRES    WAVE   SWELL
                          AIR SEA DIR/SP/G            HT/PER HT/PER
                          (F)     (DEG/KT/KT) (MB)    (FT/S) (FT/S)
SHELL POINT      NOT AVBL
KEATON BEACH               65     160/ 11/ 14 1014.6F
CEDAR KEY                  67     170/ 10/ 12 1015.7R
FERNANDINA                 69 60  160/  4/  5 1016.8F
30.7N   81.3W                 60                N/A     1/ 9
MAYPORT                    66 60  130/  6/  8 1016.2R
31.4N   80.9W              59 58   30/  2/  4 1016.7R   3/ 6   2/ 6
ST AUGUSTINE               62 60  110/  2/  3 1016.7R

$$
FLZ040-043>046-052-053-057-058-063-144-171700-
INTERIOR CENTRAL FLORIDA
  
CITY           SKY/WX    TMP DP  RH WIND       PRES   REMARKS
OCALA          FAIR      78  65  63 SW15      30.00S                  
LEESBURG       FAIR      76  63  64 S10       30.01S                  
SANFORD        FAIR      79  64  60 S8        30.01S                  
ORLANDO EXEC   FAIR      78  62  57 S14       30.02R                  
ORLANDO INTL   FAIR      76  63  64 S13       30.02S                  
KISSIMMEE      FAIR      78  65  63 S9        30.03F                  
WINTER HAVEN   FAIR      80  64  58 S10       30.03S                  
LAKELAND       SUNNY     77  64  65 S6        30.02F                  
BARTOW         SUNNY     77  64  65 S7        30.01F                  
SEBRING        FAIR      78  66  67 SE8       30.03S                  
OKEECHOBEE     FAIR      77  66  69 S9        30.03S                  

$$
FLZ041-047-054-059-064-141-147-171700-
EAST CENTRAL FLORIDA
  
CITY           SKY/WX    TMP DP  RH WIND       PRES   REMARKS
ORMOND BEACH   SUNNY     77  66  69 S3        30.01R                  
DAYTONA BEACH  PTSUNNY   78  67  68 S8        30.01S                  
DELAND         FAIR      79  64  61 S7        30.01S                  
NEW SMYRNA BEA SUNNY     77  64  65 S10       30.02S                  
JFK SPACE CTR  FAIR      78  64  62 S5        30.02R                  
TITUSVILLE     SUNNY     81  63  54 S9        30.03S                  
CAPE CANAVERAL FAIR      72  66  80 S12       30.02R                  
PATRICK AFB    FAIR      71  68  89 SE10      30.03S                  
MELBOURNE      FAIR      77  65  66 S6        30.03S                  
VERO BEACH     FAIR      79  65  62 S8        30.04S                  
FT PIERCE      FAIR      80  64  58 SW7       30.03S                  

STATION/POSITION SKY/WX   TEMP    WIND        PRES    WAVE   SWELL
                          AIR SEA DIR/SP/G            HT/PER HT/PER
                          (F)     (DEG/KT/KT) (MB)    (FT/S) (FT/S)
28.5N   80.2W              67     160/  8/  8 1017.7
28.9N   78.5W              75 75  200/  8/  8 1018.0R   3/ 8   3/ 8
TRIDENT PIER               66 65  150/  8/ 10 1018.0R
28.4N   80.5W                 65                N/A     1/ 8

$$
FLZ050-056-061-142-242-148-248-149-249-151-251-155-255-
160-260-171700-
WEST CENTRAL FLORIDA
  
CITY           SKY/WX    TMP DP  RH WIND       PRES   REMARKS
CRYSTAL RIVER  FAIR      79  63  57 S3        29.99F                  
INVERNESS      FAIR      79  66  65 S9G16     30.01R                  
BROOKSVILLE    FAIR      79  63  57 S14       30.01S                  
CLEARWATER AIR FAIR      77  63  61 S10       29.99S                  
ST PETE CLEARW FAIR      79  63  57 S13       29.99F                  
TAMPA INTL     FAIR      77  65  66 S9        30.00F                  
TAMPA EXEC     FAIR      79  64  61 S8        30.01S                  
PLANT CITY     FAIR      81  64  57 S10       30.03S                  
MACDILL AFB    FAIR      75  66  71 S8        29.99F                  
PETER O KNIGHT CLOUDY    77  68  73 S6        30.01S                  
ST PETERSBURG  FAIR      75  66  73 S8        29.98S                  
SARASOTA       FAIR      81  64  56 S17G23    29.99S                  
VENICE         FAIR      81  70  69 S15G23    30.02R                  

STATION/POSITION SKY/WX   TEMP    WIND        PRES    WAVE   SWELL
                          AIR SEA DIR/SP/G            HT/PER HT/PER
                          (F)     (DEG/KT/KT) (MB)    (FT/S) (FT/S)
27.3N   84.2W                 71                N/A     3/ 5
CLEARWATER BEACH           75 66  160/ 12/ 14 1015.7S
MIDDLE TAMPA BAY           73     210/  6/  6 1016.0F
VENICE                     71 67  160/ 13/ 15   N/A

$$
FLZ066-069-070-075>078-162-262-165-265-171700-
SOUTHWEST FLORIDA AND KEYS
  
CITY           SKY/WX    TMP DP  RH WIND       PRES   REMARKS
PUNTA GORDA    FAIR      81  64  56 S16       30.03S                  
FT MYERS       PTSUNNY   80  67  64 S10G17    30.01S                  
SOUTHWEST INTL FAIR      80  68  66 S13       30.02S                  
NAPLES         PTSUNNY   80  69  69 S15       30.02S                  
MARCO ISLAND   FAIR      80  71  74 S15G21    30.04S                  
IMMOKALEE      PTSUNNY   84  68  58 S10       30.01S                  
MARATHON       FAIR      84  71  65 S12       30.04S                  
KEY WEST NAS   FAIR      83  70  64 SE13      30.03S                  
KEY WEST INTL  FAIR      80  71  74 SE16      30.04S                  

STATION/POSITION SKY/WX   TEMP    WIND        PRES    WAVE   SWELL
                          AIR SEA DIR/SP/G            HT/PER HT/PER
                          (F)     (DEG/KT/KT) (MB)    (FT/S) (FT/S)
NAPLES                     76 70  140/  5/ 16 1016.7R
26.0N   85.6W              79 80  180/ 16/ 19 1014.4
DRY TORTUGAS               77     160/ 13/ 15 1016.5R
SAND KEY                   76                 1017.0S
SOMBRERO KEY               78                 1016.8R
LONG KEY                   78 75  160/ 11/ 11 1017.2S

$$
FLZ067-068-071>074-168-172>174-171700-
SOUTHEAST FLORIDA 
  
CITY           SKY/WX    TMP DP  RH WIND       PRES   REMARKS
W PALM BEACH   FAIR      82  63  52 S12       30.05R                  
BOCA RATON     MOSUNNY   86  68  54 SE12      30.04S                  
FT LAUDER-EXEC FAIR      82  68  62 S7        30.04S                  
FT LAUDERDALE  FAIR      80  71  74 S12       30.03F                  
POMPANO BEACH  FAIR      82  69  64 S14       30.05R                  
PEMBROKE PINES FAIR      83  65  54 S10       30.05F                  
OPA LOCKA      FAIR      81  67  62 S14       30.05S                  
MIAMI          FAIR      81  70  69 S14       30.05S                  
WEST KENDALL   PTSUNNY   82  68  62 S12       30.04F                  
HOMESTEAD      FAIR      81  70  69 SE12      30.04S                  

STATION/POSITION SKY/WX   TEMP    WIND        PRES    WAVE   SWELL
                          AIR SEA DIR/SP/G            HT/PER HT/PER
                          (F)     (DEG/KT/KT) (MB)    (FT/S) (FT/S)
VIRGINIA KEY               78 76  150/  9/ 14 1017.1S
LAKE WORTH                 76 76  210/  9/ 10 1018.7R
FOWEY ROCKS                79 76  160/ 14/ 16 1018.4R
SETTLEMENT POINT           77     180/ 10/ 12 1018.0R

$$